Cosmos 1544 - Orbit

View from above orbital plane
View from above orbital plane
View from above satellite
View from above satellite

Ground track
Ground track

The orbit data is extracted from the following two-line orbital elements,

1 14819U 84027A   13168.24036747  .00002547  00000-0  14069-3 0  6703
2 14819 082.4914 043.9993 0020748 100.3965 037.1562 15.13306254593792
Epoch (UTC): 17 June 2013 05:46:07
Eccentricity: 0.0020748
inclination: 82.4914°
perigee height: 512 km
apogee height: 540 km
right ascension of ascending node: 43.9993°
argument of perigee: 100.3965°
revolutions per day: 15.13306254
mean anomaly at epoch: 37.1562°
orbit number at epoch: 59379

The dashed part of the orbit path shows where the satellite is in the earth's shadow,  

Developed and maintained by Chris Peat, Heavens-Above GmbH. Please read the updated FAQ before sending e-mail. Imprint. DLR